Friday Harbor, WA

12:32 AM PDT on April 26, 2017 (GMT -0700)
Friday Harbor

Weather History for KFHR - December, 2011

Change the Weather History Date:

Sunday, December 25, 2011

  Actual Average Record
Temperature  
Mean Temperature 44 °F -  
Max Temperature 48 °F 43 °F 55 °F (2005)
Min Temperature 39 °F 34 °F 27 °F (2016)
Degree Days  
Heating Degree Days 22    
Moisture  
Dew Point 38 °F    
Average Humidity 79    
Maximum Humidity 96    
Minimum Humidity 68    
Precipitation  
Precipitation 0.02 in - - ()
Sea Level Pressure  
Sea Level Pressure 30.08 in    
Wind  
Wind Speed 6 mph (South)    
Max Wind Speed 26 mph    
Max Gust Speed 41 mph    
Visibility 10 miles    
Events Rain    
Averages and records for this station are not official NWS values.
T = Trace of Precipitation, MM = Missing Value Source: NWS Daily Summary

Daily Weather History Graph

Daily Weather History Graph

Search for Another Location

Airport or City:

Trip Planner

Search our weather history database for the weather conditions in past years. The results will help you decide how hot, cold, wet, or windy it might be!

Date:

Astronomy

Dec. 25, 2011 Rise Set
Actual Time 8:03 AM PST 4:21 PM PST
Civil Twilight 7:26 AM PST 4:58 PM PST
Nautical Twilight 6:45 AM PST 5:38 PM PST
Astronomical Twilight 6:07 AM PST 6:16 PM PST
Moon 8:41 AM PST (12/25) 5:53 PM PST (12/25)
Length of Visible Light 9h 32m
Length of Day
8h 18m
New Moon, 2% of the Moon is Illuminated
Dec 25
New Moon
Dec 31
First Quarter
Jan 8
Full
Jan 16
Last Quarter
Jan 22
New

Hourly Weather History & Observations

Time (PST) Temp. Windchill Dew Point Humidity Pressure Visibility Wind Dir Wind Speed Gust Speed Precip Events Conditions
12:53 AM 44.1 °F - 42.1 °F 93% 30.16 in 10.0 mi Calm Calm - N/A   Partly Cloudy
1:53 AM 44.1 °F - 41.0 °F 89% 30.12 in 10.0 mi Calm Calm - N/A   Clear
2:53 AM 42.1 °F - 41.0 °F 96% 30.09 in 10.0 mi Calm Calm - N/A   Clear
3:53 AM 43.0 °F - 39.9 °F 89% 30.04 in 10.0 mi Calm Calm - N/A   Clear
4:53 AM 42.1 °F - 39.9 °F 92% 30.00 in 10.0 mi Calm Calm - N/A   Clear
5:53 AM 41.0 °F - 37.9 °F 89% 29.97 in 10.0 mi Calm Calm - N/A   Clear
6:53 AM 39.0 °F - 37.0 °F 93% 29.94 in 10.0 mi Calm Calm - N/A   Clear
7:53 AM 44.1 °F 42.5 °F 39.0 °F 82% 29.87 in 10.0 mi ENE 3.5 mph - N/A   Clear
8:53 AM 46.9 °F - 39.0 °F 74% 29.84 in 10.0 mi East 4.6 mph - N/A   Mostly Cloudy
9:53 AM 48.0 °F - 39.9 °F 74% 29.86 in 10.0 mi SSE 11.5 mph 21.9 mph N/A   Overcast
10:53 AM 48.0 °F - 37.9 °F 68% 29.82 in 10.0 mi SSE 26.5 mph 41.4 mph N/A   Overcast
11:53 AM 46.0 °F 38.8 °F 39.0 °F 76% 29.86 in 8.0 mi South 18.4 mph 34.5 mph 0.00 in Rain Light Rain
12:13 PM 44.6 °F 36.1 °F 39.2 °F 81% 29.90 in 9.0 mi SW 21.9 mph 41.4 mph 0.02 in Rain Light Rain
12:53 PM 46.0 °F 39.0 °F 39.9 °F 79% 29.94 in 10.0 mi SSW 17.3 mph 39.1 mph 0.02 in   Scattered Clouds
1:04 PM 46.4 °F 39.2 °F 39.2 °F 76% 29.95 in 10.0 mi SW 18.4 mph 32.2 mph N/A   Mostly Cloudy
1:26 PM 46.4 °F 39.8 °F 39.2 °F 76% 29.98 in 10.0 mi SW 16.1 mph 32.2 mph N/A   Scattered Clouds
1:53 PM 46.0 °F 38.3 °F 39.0 °F 76% 30.01 in 10.0 mi SW 20.7 mph 35.7 mph N/A   Mostly Cloudy
3:53 PM 46.0 °F 41.0 °F 37.9 °F 73% 30.14 in 10.0 mi SW 10.4 mph 18.4 mph N/A   Partly Cloudy
4:53 PM 45.0 °F 39.7 °F 36.0 °F 71% 30.18 in 10.0 mi SW 10.4 mph 23.0 mph 0.00 in   Partly Cloudy
6:53 PM 45.0 °F 40.6 °F 35.1 °F 68% 30.24 in 10.0 mi SW 8.1 mph - N/A   Clear
7:53 PM 44.1 °F - 35.1 °F 71% 30.27 in 10.0 mi Calm Calm - N/A   Clear
8:53 PM 41.0 °F - 34.0 °F 76% 30.30 in 10.0 mi Calm Calm - N/A   Clear
9:53 PM 43.0 °F 40.3 °F 35.1 °F 74% 30.33 in 10.0 mi SSW 4.6 mph - N/A   Partly Cloudy
10:40 PM 44.6 °F 43.1 °F 35.6 °F 71% 30.35 in 10.0 mi South 3.5 mph - N/A   Overcast
10:53 PM 44.1 °F 41.5 °F 37.9 °F 79% 30.35 in 10.0 mi SE 4.6 mph - N/A   Mostly Cloudy
11:06 PM 44.6 °F - 37.4 °F 76% 30.35 in 10.0 mi Calm Calm - N/A   Mostly Cloudy
11:53 PM 42.1 °F 36.1 °F 37.0 °F 82% 30.34 in 10.0 mi SE 10.4 mph - N/A   Clear